Childress Municipal Airport Childress US
ICAO: KCDS
IATA: CDS
Category: Medium
Scheduled Services: No

Elevation: 1954 ft
TransAlt. 18000 ft.

Airport Communications:
ASOS:135.125
FORT WORTH CNTR:133.5
FORT WORTH RDO:122.45
CTAF/UNICOM:122.8

KCDS Zoom In..

Runways:

(A) RW 04 length 4425 ft width 60 ft
---- / hdg 41

(B) RW 18 length 5949 ft width 75 ft
---- / hdg 176

(C) RW 22 length 4425 ft width 60 ft
---- / hdg 221

(D) RW 36 length 5949 ft width 75 ft
---- / hdg 356

Location; KCDS
Day. 23 / Time. 07.53 Zulu
* Altimeter: 29.90
* Temperature: 30° c. 86°f.
* Wind from: 220° Speed 08 kn.
Dewpoint: 09° c.
Visibility: 10 Statute Miles.
Clouds: Clear (automated report).

KCDS 230753Z AUTO 22008KT 10SM CLR 30/09 A2990 RMK AO2 SLP090 T03000089


Wind From 220°
Speed 08 kn.

 
 
jpsmedia.com for Web Design worldairports.se 2018   terms of use